Overview Statistics Trail Chart Weather Telemetry Raw packets
 

This is the latest recevied weather packets stored in our database for station/object SV6GMP-10. If no packets are shown the sender has not sent any weather packets the latest 10 day(s).

<< 1 2 3 4 5 >>
Time Temp. Humidity Pressure Rain* Wind** Luminosity Snow
1788581905 28.33° C 44% 1016.6 hPa - - - -
1788581005 28.33° C 47% 1016.5 hPa - - - -
1788580105 28.89° C 44% 1016.3 hPa - - - -
1788579204 28.89° C 47% 1016.2 hPa - - - -
1788578316 28.89° C 57% 1016.1 hPa - - - -
1788578304 28.89° C 57% 1016.1 hPa - - - -
1788577404 28.89° C 55% 1016.1 hPa - - - -
1788576504 28.89° C 53% 1016 hPa - - - -
1788575604 28.89° C 51% 1016 hPa - - - -
1788574704 28.89° C 49% 1016.1 hPa - - - -
1788573804 29.44° C 48% 1016 hPa - - - -
1788572904 29.44° C 46% 1015.9 hPa - - - -
1788572004 29.44° C 46% 1015.8 hPa - - - -
1788571104 29.44° C 47% 1015.9 hPa - - - -
1788570204 30° C 45% 1016 hPa - - - -
1788569304 30° C 48% 1015.9 hPa - - - -
1788568404 30° C 54% 1015.9 hPa - - - -
1788567504 30° C 56% 1016 hPa - - - -
1788566603 30° C 54% 1016.1 hPa - - - -
1788565703 30.56° C 52% 1016 hPa - - - -
1788564803 30.56° C 57% 1016.1 hPa - - - -
1788563903 30.56° C 60% 1016.3 hPa - - - -
1788563003 30.56° C 63% 1016.2 hPa - - - -
1788562123 31.67° C 62% 1016.2 hPa - - - -
1788561203 31.11° C 66% 1016.3 hPa - - - -

* Rain since midnight (hover to see other rain measurements)
** Current wind speed in m/s (hover to see current wind gust speed)